{"data":{"norad_id":68218,"epoch":"2026-05-25T03:10:57.434016Z","epoch_age_seconds":60656,"freshness":"FRESH","line1":"1 68218U 26053M   26145.13260919  .00020834  00000+0  64565-3 0  9995","line2":"2 68218  97.2866  20.5898 0000761  62.4165 297.7155 15.33456982 11931","mean_motion":15.33456982,"eccentricity":7.61e-5,"inclination_deg":97.2866,"raan_deg":20.5898,"arg_perigee_deg":62.4165,"mean_anomaly_deg":297.7155,"bstar":0.00064565,"rev_number":1193,"period_min":93.905470900259,"perigee_km":464.98672335999,"apogee_km":466.02832605665,"semimajor_km":6843.6445247083,"source":"CELESTRAK","updated_at":"2026-05-25T13:38:21.879751Z"}}